Temp
0 0 0 -0 -0 -0 -0 -0 -0 -0 -0 -0 0 0 0 0 0 0 0 0 0 0 1 1 1 1 1 1 1 1 1 0 1 1 1 1 1 1 1 1 1 1
0 -0 -0 -1 -1 -1 -1 -1 -1 -1 -1 -1 -1 -1 -1 -1 -0 -0 -0 -0 0 0 0 0 -0 0 0 0 0 0 0 0 0 0 0 0 1 1 1 1 1 1
-0 -1 -1 -1 -1 -1 -2 -2 -2 -2 -2 -2 -2 -2 -2 -1 -1 -1 -1 -1 -1 -1 -0 -0 -0 -1 -1 -1 -1 -1 -1 -1 -0 -0 -0 -0 0 0 0 1 1 0
-1 -1 -1 -1 -1 -2 -2 -2 -2 -3 -3 -3 -3 -3 -3 -2 -2 -2 -1 -1 -1 -1 -1 -1 -1 -1 -1 -1 -1 -1 -2 -2 -1 -1 -1 -1 -1 -0 -0 0 0 0
-1 -1 -1 -1 -2 -2 -2 -2 -2 -3 -3 -3 -3 -3 -3 -3 -3 -3 -2 -2 -2 -2 -2 -2 -2 -2 -2 -2 -2 -2 -2 -2 -2 -2 -2 -2 -2 -1 -1 -1 -0 -0
-2 -2 -2 -2 -2 -2 -3 -3 -3 -3 -3 -3 -3 -3 -4 -4 -4 -4 -4 -4 -3 -3 -2 -2 -2 -3 -3 -3 -3 -3 -3 -2 -3 -2 -2 -2 -2 -2 -2 -2 -2 -1
-3 -3 -3 -3 -3 -4 -4 -4 -4 -4 -4 -4 -4 -4 -4 -4 -4 -5 -5 -5 -5 -5 -4 -4 -3 -3 -3 -3 -3 -3 -3 -3 -3 -3 -3 -3 -3 -3 -3 -3 -3 -2
-4 -4 -4 -4 -4 -4 -5 -5 -5 -5 -5 -5 -5 -5 -5 -5 -5 -5 -5 -5 -5 -5 -5 -5 -5 -5 -5 -4 -4 -4 -3 -3 -4 -4 -3 -3 -3 -3 -3 -4 -3 -3
-6 -6 -6 -6 -5 -6 -6 -6 -6 -6 -6 -6 -6 -6 -6 -6 -6 -6 -6 -6 -6 -6 -6 -6 -6 -6 -6 -6 -5 -5 -5 -4 -4 -4 -4 -4 -4 -4 -4 -4 -4 -4
-8 -8 -8 -8 -8 -7 -7 -7 -7 -7 -7 -7 -7 -7 -7 -7 -7 -7 -7 -7 -7 -7 -7 -7 -7 -7 -7 -7 -7 -6 -6 -6 -5 -5 -5 -4 -4 -4 -4 -4 -4 -4
-9 -9 -9 -9 -9 -9 -9 -9 -9 -8 -8 -8 -8 -8 -8 -8 -8 -8 -8 -8 -8 -8 -8 -8 -8 -8 -8 -8 -7 -7 -7 -7 -6 -6 -6 -6 -5 -5 -4 -4 -4 -4
-10 -10 -10 -10 -10 -10 -10 -9 -9 -9 -9 -9 -9 -9 -9 -9 -9 -8 -8 -8 -8 -8 -8 -8 -8 -8 -8 -8 -8 -8 -8 -8 -7 -7 -7 -6 -6 -6 -6 -5 -5 -4
-11 -11 -11 -10 -10 -10 -10 -10 -10 -10 -10 -10 -10 -9 -9 -9 -9 -9 -9 -9 -9 -9 -9 -9 -9 -8 -8 -8 -8 -9 -9 -9 -9 -8 -8 -7 -7 -7 -7 -6 -6 -5
-11 -11 -11 -11 -11 -11 -11 -11 -11 -11 -10 -10 -10 -10 -10 -10 -10 -10 -10 -10 -9 -9 -9 -9 -9 -9 -9 -9 -9 -9 -9 -9 -9 -9 -9 -9 -8 -8 -7 -7 -7 -7
-12 -12 -12 -12 -12 -12 -12 -12 -12 -12 -12 -12 -11 -11 -11 -11 -11 -11 -11 -10 -10 -10 -10 -10 -10 -10 -10 -10 -10 -10 -10 -10 -10 -10 -10 -9 -9 -9 -8 -8 -8 -7
-12 -12 -12 -12 -12 -12 -12 -12 -12 -12 -12 -12 -12 -12 -12 -12 -12 -12 -12 -12 -11 -11 -11 -11 -11 -11 -10 -11 -11 -11 -11 -11 -10 -10 -10 -10 -10 -9 -9 -9 -9 -8
-12 -12 -12 -12 -13 -13 -13 -13 -13 -13 -13 -13 -13 -13 -13 -13 -13 -13 -13 -13 -12 -12 -12 -12 -12 -11 -11 -12 -12 -12 -12 -12 -11 -11 -11 -11 -11 -10 -10 -9 -9 -9
-13 -13 -13 -13 -13 -13 -13 -13 -13 -13 -13 -13 -13 -13 -13 -13 -13 -13 -13 -13 -13 -13 -13 -13 -12 -12 -12 -12 -12 -12 -12 -12 -12 -12 -12 -11 -11 -11 -10 -10 -10 -10
-13 -13 -13 -13 -13 -14 -13 -13 -13 -13 -13 -13 -13 -13 -13 -13 -13 -13 -13 -13 -13 -13 -13 -13 -13 -12 -12 -12 -12 -12 -12 -12 -12 -12 -12 -12 -11 -11 -11 -11 -10 -10
-14 -14 -14 -14 -14 -14 -14 -14 -14 -14 -14 -14 -13 -13 -13 -13 -13 -13 -13 -13 -13 -13 -13 -13 -12 -12 -12 -12 -12 -12 -12 -13 -13 -13 -12 -12 -12 -12 -11 -11 -11 -11
-14 -14 -14 -14 -14 -14 -14 -14 -14 -14 -14 -14 -14 -14 -14 -13 -13 -13 -13 -13 -13 -13 -13 -13 -12 -12 -12 -13 -13 -13 -13 -13 -13 -13 -13 -13 -12 -12 -12 -11 -11 -11
-14 -14 -14 -14 -14 -14 -14 -14 -14 -14 -14 -14 -14 -14 -14 -14 -14 -14 -14 -14 -14 -14 -14 -13 -13 -13 -13 -13 -13 -14 -14 -14 -14 -14 -14 -14 -13 -13 -12 -12 -12 -12
-15 -15 -14 -14 -14 -14 -14 -14 -14 -14 -14 -14 -14 -14 -14 -14 -14 -14 -14 -14 -14 -14 -14 -14 -14 -13 -14 -14 -14 -14 -14 -14 -14 -14 -14 -14 -14 -13 -13 -13 -13 -13
-15 -15 -15 -14 -14 -14 -14 -14 -14 -14 -14 -14 -14 -14 -14 -15 -15 -15 -15 -15 -15 -15 -15 -15 -14 -14 -14 -14 -14 -14 -15 -15 -14 -14 -14 -14 -14 -14 -14 -14 -14 -13
-15 -15 -15 -14 -14 -14 -14 -14 -14 -14 -14 -14 -15 -15 -15 -15 -15 -15 -14 -14 -14 -14 -14 -14 -14 -14 -14 -14 -14 -14 -15 -15 -15 -14 -14 -14 -13 -13 -13 -13 -13 -13
-15 -15 -14 -14 -14 -14 -14 -14 -14 -14 -15 -15 -15 -14 -14 -14 -15 -15 -14 -14 -14 -14 -14 -15 -15 -14 -14 -15 -15 -15 -15 -15 -15 -15 -14 -14 -14 -14 -13 -13 -13 -13
Height
3076 3075 3075 3075 3075 3075 3075 3075 3074 3073 3073 3072 3071 3070 3069 3068 3067 3066 3065 3064 3063 3062 3061 3060 3059 3058 3057 3056 3056 3055 3054 3054 3053 3052 3051 3050 3048 3047 3046 3046 3046 3046
3070 3070 3069 3068 3068 3068 3068 3068 3068 3068 3067 3067 3066 3066 3065 3064 3062 3061 3060 3059 3058 3057 3055 3054 3053 3052 3052 3051 3050 3050 3049 3048 3048 3047 3046 3045 3044 3043 3042 3040 3040 3040
3067 3065 3064 3064 3063 3062 3061 3060 3060 3060 3061 3061 3061 3061 3060 3059 3058 3056 3055 3054 3053 3051 3050 3049 3048 3047 3046 3045 3045 3044 3043 3043 3042 3041 3040 3040 3039 3039 3037 3036 3035 3034
3064 3062 3061 3060 3059 3058 3057 3056 3054 3053 3053 3053 3053 3054 3054 3054 3053 3052 3050 3049 3047 3046 3045 3044 3042 3041 3040 3040 3039 3038 3038 3037 3036 3035 3035 3035 3034 3033 3033 3031 3030 3029
3060 3059 3058 3057 3055 3054 3053 3052 3051 3049 3048 3046 3046 3046 3046 3046 3046 3046 3045 3044 3042 3041 3040 3038 3037 3036 3035 3034 3033 3032 3032 3031 3030 3029 3029 3029 3028 3027 3027 3026 3025 3024
3057 3056 3054 3053 3051 3050 3048 3047 3046 3045 3044 3042 3041 3040 3039 3038 3038 3038 3038 3037 3036 3035 3034 3033 3032 3031 3030 3029 3028 3027 3026 3025 3024 3023 3023 3023 3022 3021 3021 3020 3020 3019
3053 3052 3050 3048 3047 3046 3044 3043 3041 3040 3039 3037 3036 3034 3033 3032 3030 3029 3029 3029 3028 3028 3027 3027 3026 3025 3024 3023 3023 3022 3021 3020 3019 3018 3018 3017 3016 3016 3015 3014 3013 3013
3047 3046 3045 3043 3042 3040 3039 3037 3036 3034 3033 3032 3030 3028 3027 3025 3024 3022 3021 3020 3020 3019 3019 3019 3019 3019 3018 3017 3017 3016 3015 3014 3013 3012 3011 3011 3010 3010 3009 3008 3007 3007
3040 3039 3038 3037 3036 3034 3033 3031 3030 3028 3027 3026 3024 3023 3021 3020 3018 3016 3015 3013 3012 3012 3011 3011 3011 3011 3011 3011 3010 3009 3008 3007 3006 3005 3005 3004 3004 3003 3002 3001 3001 3000
3034 3033 3032 3031 3030 3029 3028 3026 3024 3023 3021 3020 3018 3017 3015 3014 3012 3010 3009 3007 3007 3005 3004 3004 3003 3002 3002 3002 3001 3001 3000 3000 2999 2998 2998 2997 2997 2996 2995 2994 2993 2993
3029 3028 3027 3026 3025 3024 3022 3021 3019 3017 3016 3014 3012 3011 3009 3007 3006 3004 3002 3001 3000 2999 2998 2997 2996 2995 2994 2993 2992 2991 2991 2990 2990 2991 2990 2990 2990 2989 2988 2987 2987 2986
3025 3024 3023 3021 3020 3018 3017 3015 3014 3012 3010 3008 3006 3005 3003 3001 2999 2998 2996 2994 2993 2992 2991 2990 2989 2988 2987 2985 2984 2982 2981 2980 2980 2980 2980 2981 2981 2981 2980 2979 2979 2979
3020 3019 3017 3016 3015 3013 3011 3010 3008 3006 3004 3002 3001 2999 2997 2995 2993 2992 2990 2989 2987 2985 2984 2982 2981 2980 2979 2978 2977 2975 2973 2972 2971 2970 2969 2969 2970 2971 2971 2970 2970 2970
3014 3012 3011 3010 3009 3007 3005 3003 3001 3000 2998 2996 2994 2992 2990 2988 2986 2985 2984 2982 2981 2979 2977 2975 2974 2973 2972 2970 2968 2967 2965 2964 2963 2961 2960 2959 2958 2959 2960 2960 2961 2961
3008 3007 3005 3004 3002 3001 2999 2997 2995 2993 2991 2989 2988 2985 2983 2982 2980 2978 2976 2975 2973 2972 2970 2969 2967 2965 2965 2963 2960 2958 2957 2955 2954 2953 2951 2950 2949 2948 2948 2948 2950 2951
3003 3001 3000 2998 2996 2994 2992 2991 2989 2987 2985 2983 2981 2979 2977 2975 2973 2971 2969 2967 2965 2963 2962 2960 2959 2958 2957 2955 2952 2949 2947 2945 2944 2943 2942 2941 2939 2939 2938 2938 2938 2938
2996 2994 2993 2991 2989 2987 2985 2983 2982 2980 2978 2976 2975 2973 2971 2968 2966 2964 2962 2960 2957 2955 2953 2951 2950 2949 2948 2946 2943 2940 2938 2935 2932 2931 2930 2929 2929 2928 2928 2928 2928 2927
2988 2986 2985 2983 2981 2979 2977 2975 2973 2972 2970 2968 2966 2964 2962 2961 2959 2957 2955 2953 2950 2947 2945 2943 2941 2940 2939 2936 2933 2931 2928 2924 2921 2918 2917 2916 2916 2916 2916 2916 2916 2916
2981 2979 2977 2975 2973 2971 2969 2967 2965 2963 2961 2958 2956 2954 2953 2951 2949 2947 2944 2943 2940 2936 2934 2932 2931 2931 2929 2926 2922 2920 2917 2913 2909 2906 2904 2903 2903 2903 2903 2903 2904 2903
2974 2972 2970 2968 2966 2964 2961 2959 2957 2954 2952 2950 2947 2945 2942 2940 2937 2935 2932 2930 2927 2924 2920 2918 2918 2918 2917 2913 2909 2906 2904 2900 2896 2893 2891 2891 2890 2890 2890 2891 2891 2891
2968 2966 2964 2961 2959 2956 2954 2952 2949 2946 2943 2940 2937 2935 2932 2928 2925 2922 2919 2917 2914 2911 2906 2904 2904 2905 2902 2898 2894 2891 2888 2885 2881 2879 2878 2877 2877 2878 2878 2877 2878 2878
2962 2960 2957 2955 2952 2950 2947 2944 2941 2938 2935 2931 2927 2924 2921 2917 2913 2910 2906 2903 2901 2898 2893 2890 2890 2891 2888 2883 2879 2876 2873 2869 2866 2865 2864 2863 2863 2865 2865 2864 2864 2864
2956 2953 2951 2948 2945 2943 2940 2937 2933 2930 2926 2921 2916 2913 2910 2905 2901 2898 2895 2891 2888 2885 2880 2875 2875 2877 2874 2868 2865 2862 2858 2854 2851 2849 2848 2848 2849 2850 2850 2850 2850 2850
2950 2947 2944 2941 2939 2936 2932 2929 2925 2921 2917 2912 2906 2902 2898 2894 2889 2885 2883 2880 2875 2871 2867 2861 2859 2861 2859 2853 2850 2847 2843 2838 2835 2833 2832 2832 2833 2834 2834 2834 2835 2837
2944 2941 2937 2934 2931 2928 2925 2921 2917 2913 2908 2903 2897 2892 2887 2883 2878 2872 2869 2866 2861 2856 2853 2848 2844 2844 2843 2837 2833 2831 2828 2823 2819 2816 2815 2816 2816 2815 2816 2818 2819 2822
2937 2934 2931 2927 2924 2921 2917 2913 2908 2903 2898 2893 2888 2883 2877 2871 2865 2859 2854 2851 2846 2841 2838 2834 2830 2829 2827 2823 2819 2817 2814 2809 2806 2803 2802 2801 2800 2799 2800 2802 2804 2806
Wind_Speed
42 42 42 42 41 40 40 39 39 39 39 39 39 39 39 39 39 39 39 38 38 37 37 36 36 36 36 36 35 35 33 32 31 31 31 31 31 31 32 34 35 37
48 47 47 46 46 45 44 43 42 41 40 39 39 38 39 39 39 39 39 39 39 39 39 38 37 37 37 37 37 37 36 35 34 34 34 33 32 32 33 33 33 35
50 50 49 49 50 50 49 47 46 44 42 40 39 36 36 36 38 38 38 38 38 38 39 39 38 38 38 37 36 36 36 36 36 37 37 37 36 35 35 34 34 34
50 51 52 53 53 52 52 51 50 48 45 43 41 38 36 35 35 36 37 37 37 37 37 37 37 38 38 38 37 36 36 36 36 37 37 38 38 38 38 37 37 36
51 53 54 55 55 54 52 50 49 48 48 46 45 43 40 38 36 35 35 36 36 36 36 36 36 36 36 37 37 37 37 36 37 37 38 37 37 38 39 39 39 39
53 53 53 53 54 53 52 49 47 46 46 47 47 46 45 42 39 37 35 35 35 36 37 37 37 36 36 36 36 36 36 36 37 38 39 40 39 39 40 40 41 40
51 51 51 50 49 49 48 47 46 45 44 44 45 46 46 46 45 43 41 39 37 36 36 37 38 38 38 38 38 37 37 36 37 38 39 40 40 41 40 41 42 42
47 47 47 47 47 46 45 44 43 43 43 43 43 43 44 46 47 47 47 46 44 42 40 39 39 39 39 39 40 40 40 39 39 39 39 40 40 41 41 41 42 43
43 43 43 43 43 44 43 43 43 43 43 44 44 43 44 44 45 46 46 47 47 46 46 45 44 42 42 41 41 42 42 42 42 42 41 41 42 42 42 42 43 43
41 40 39 40 40 41 41 42 43 43 43 44 45 45 45 46 46 46 46 46 46 46 46 47 47 47 47 46 46 46 45 45 45 45 45 44 44 44 45 45 45 45
38 38 39 39 39 39 40 40 41 42 43 44 45 46 47 48 48 48 49 49 49 49 49 49 49 50 50 51 51 50 50 50 49 49 48 47 47 47 47 47 47 48
36 37 37 38 39 40 40 41 42 43 43 44 46 47 48 48 50 50 51 52 52 53 53 53 54 54 54 54 54 54 54 54 54 54 53 52 50 49 49 49 49 49
36 36 37 38 39 40 41 42 43 44 45 46 47 48 49 50 51 51 52 54 54 55 56 56 57 57 57 57 57 56 56 56 56 56 57 57 55 54 52 51 51 51
37 38 38 39 39 40 41 42 44 45 46 47 48 49 50 51 52 53 54 55 55 56 57 58 58 59 59 58 58 58 58 58 58 57 58 58 59 59 57 55 54 53
38 39 39 40 40 40 40 41 42 43 45 46 47 48 49 51 52 54 55 56 57 57 58 59 60 60 60 60 60 60 60 60 60 60 59 59 60 60 61 60 58 56
40 40 40 40 40 40 41 41 42 43 44 45 46 47 48 49 51 52 54 56 57 58 59 60 61 61 62 62 63 63 64 64 64 63 63 62 62 62 62 62 62 62
43 43 43 43 43 43 43 43 44 45 45 46 47 48 49 50 51 53 54 56 58 60 61 62 63 63 64 64 65 66 67 68 68 68 68 67 66 66 65 65 64 64
45 45 46 45 46 46 46 47 48 49 50 50 51 52 53 54 55 57 58 59 61 63 64 65 66 66 66 67 68 69 69 71 72 72 72 72 71 70 69 68 67 67
46 47 47 47 48 48 49 50 51 53 54 55 56 57 59 60 61 63 64 65 67 69 69 70 70 69 70 71 72 72 72 73 74 75 75 75 75 74 73 72 71 70
48 48 49 49 50 50 51 53 54 56 57 59 61 63 65 67 68 70 72 73 74 75 76 76 75 73 73 74 74 74 74 75 75 76 76 77 77 77 76 76 75 74
49 49 50 50 51 52 54 56 57 60 62 64 67 68 71 73 75 77 78 78 78 79 79 79 77 76 75 75 75 74 74 74 74 75 75 76 76 77 77 78 77 77
49 50 51 51 53 54 56 58 61 63 66 69 72 74 76 78 79 79 79 78 78 77 77 77 76 74 74 74 74 74 74 74 74 75 75 75 75 75 76 77 78 78
49 50 51 53 54 56 59 61 64 67 70 74 76 77 78 77 76 76 76 75 76 76 76 77 76 75 74 75 75 75 76 77 77 77 77 77 76 75 75 76 76 77
49 51 53 54 56 59 62 64 67 71 74 76 76 75 74 74 74 75 75 75 76 77 77 79 79 78 77 78 78 78 78 80 80 80 80 79 78 78 77 77 77 77
50 52 54 57 59 62 64 68 71 73 73 72 71 72 73 74 76 77 78 78 79 79 79 79 80 78 76 76 76 75 76 77 77 79 79 78 78 79 79 79 79 78
51 54 56 59 61 64 67 71 72 70 68 68 69 72 75 77 79 80 80 79 78 77 74 72 70 68 65 64 63 63 63 65 66 67 69 69 70 71 73 74 76 77
Wind_Direction
304 304 305 306 306 305 304 304 303 302 301 300 299 299 299 298 298 297 297 297 296 295 294 292 292 291 291 290 289 289 288 287 285 283 281 280 280 279 279 277 275 273
303 304 306 308 309 310 309 308 307 306 305 303 301 298 296 296 295 294 294 293 293 293 292 292 292 291 290 290 289 289 288 287 286 284 282 281 280 279 279 279 278 277
300 303 305 307 308 309 309 309 309 307 306 304 301 297 293 291 290 289 289 289 288 288 288 288 288 289 289 289 288 288 287 286 285 284 284 283 281 279 278 277 277 277
298 300 301 303 304 305 305 305 306 306 305 304 301 298 293 288 284 281 280 281 282 283 283 283 283 284 284 285 286 286 285 285 284 283 282 282 281 280 278 277 276 275
296 297 297 298 300 300 301 300 300 300 300 300 299 298 296 292 286 280 275 274 274 276 277 279 280 280 280 280 281 281 282 282 283 283 283 282 281 280 279 278 276 275
295 296 295 295 295 296 297 296 295 294 292 292 293 293 293 293 291 287 282 277 274 272 272 273 274 275 276 276 277 277 278 278 279 279 280 280 280 280 280 279 277 276
294 293 293 292 292 292 291 291 290 290 288 287 287 287 287 288 289 289 288 286 283 279 276 274 273 273 273 273 272 272 274 275 275 276 275 275 275 275 276 277 277 277
293 291 289 288 288 288 288 287 287 287 286 286 286 285 286 286 286 287 288 288 288 286 284 281 279 277 276 275 274 273 272 272 273 273 273 274 273 272 271 271 273 274
293 291 289 287 286 285 286 286 287 287 287 287 287 287 287 287 287 287 288 289 289 290 290 288 286 284 282 280 279 278 277 275 275 274 273 272 272 272 271 270 270 270
295 293 292 290 289 288 288 288 288 288 289 288 288 287 287 288 288 288 288 288 289 289 290 291 291 290 288 286 284 282 280 279 278 277 275 273 271 270 270 270 270 269
294 294 293 293 292 292 291 291 290 290 290 290 290 289 289 289 289 289 289 288 288 288 288 288 289 289 290 290 289 288 285 283 281 279 278 277 274 271 268 267 267 267
294 294 294 293 293 293 293 293 292 291 291 291 291 291 290 290 290 290 290 290 289 289 289 288 288 288 288 288 289 289 289 287 285 283 281 279 277 274 271 269 266 264
298 297 296 296 295 295 295 295 294 294 293 293 292 292 291 291 290 290 289 289 289 289 289 289 288 288 287 287 287 287 287 287 286 285 283 281 278 276 273 271 269 266
301 300 300 299 299 298 297 296 296 295 294 294 293 292 292 291 290 290 289 288 288 288 288 288 287 287 286 286 286 285 285 284 284 283 282 282 280 278 275 272 270 267
301 301 300 299 298 297 295 294 293 293 292 292 292 291 291 291 290 290 289 288 287 287 286 286 286 285 285 285 285 285 284 283 282 281 280 280 279 278 277 276 273 270
301 300 299 297 296 294 293 291 291 290 290 290 290 291 291 290 290 290 289 289 288 287 287 286 285 285 285 285 285 285 284 283 282 280 279 278 277 275 275 275 275 274
302 301 300 299 297 296 295 294 293 293 292 292 291 291 290 290 290 290 290 290 289 289 288 287 286 285 285 285 285 285 285 284 283 281 279 278 276 275 273 272 271 271
305 303 302 301 300 299 298 298 297 296 296 295 294 294 293 293 293 292 292 292 291 290 289 288 287 285 285 285 285 284 284 284 283 282 280 278 277 275 274 272 271 270
306 305 304 303 302 302 301 300 300 299 299 299 299 298 298 297 297 296 295 295 294 293 291 289 288 286 286 285 285 284 283 283 282 281 280 278 277 276 274 273 272 271
305 305 304 304 304 303 302 302 302 302 302 302 301 301 301 301 300 299 298 297 296 295 293 292 290 289 288 286 285 284 282 281 280 279 278 277 276 275 274 273 271 271
304 304 304 304 303 303 303 303 303 303 304 304 303 303 303 302 302 300 299 298 297 295 294 293 291 290 289 287 286 284 283 281 279 278 276 275 274 273 273 272 271 270
304 304 303 303 303 303 304 304 304 305 305 305 305 304 304 303 301 300 299 298 297 296 294 293 291 290 289 287 286 284 283 281 279 278 276 274 273 272 271 270 269 268
303 303 303 303 304 304 305 305 306 306 307 306 305 305 304 302 301 300 299 298 297 295 294 292 291 289 288 286 285 284 282 281 279 278 276 274 272 271 269 268 266 266
303 303 304 304 305 306 306 307 308 308 307 307 306 305 304 303 301 300 299 297 296 294 292 291 290 289 287 286 285 283 282 281 280 278 276 274 272 270 268 266 264 263
304 305 305 305 307 308 309 309 309 308 308 307 306 305 304 303 302 300 298 296 295 294 292 291 290 289 288 287 285 284 282 281 279 278 277 275 273 271 268 266 264 262
305 305 306 308 309 309 309 309 309 308 307 307 307 307 307 306 304 302 299 297 296 295 294 294 293 292 291 289 287 286 284 282 281 280 278 277 275 273 271 268 265 263